Starlink 3976

operational
NORAD ID: 52673 Int'l Des: 2022-053 Owner: SPXS Country: US Constellation: starlink
LEOCIRCULAR

Starlink 3976について

説明を読み込み中...

リアルタイム位置

3D地球を読み込み中...

次回通過

高度履歴

Altitude vs Time

uPlot chart will show altitude changes over time

軌道要素

1 52673U 22053T 25257.30495771 .00000310 00000-0 37558-4 0 9998
2 52673 53.2159 225.9445 0001471 87.3935 272.7225 15.08837708184411
Epoch: Sep 14, 2025 • Age: 25 hours

現在のステータス

高度 541.9 km
速度 7.59 km/s
衛星直下点 -6.69°S, 90.84°E
打ち上げ日 May 18, 2022
運用期間 3.3 years
タイプ internet

技術仕様

分類 Payload
質量 297.00 kg
乾燥質量 275.00 kg
総質量 297.00 kg
長さ 0.20 m
直径 2.80 m
スパン 9.00 m
形状 Box + pan
製造者 SPXS
バスタイプ Starlink
フェーズステータス In Orbit
所有者/国 SPXS/US

大規模コンステレーション

Loading constellations...